Temp
85 84 87 86 88 67 77 79 71 76 86 81 71 72 73 73 69 66 76 73 78 87 88 90 90 92 93 95 97 98 97 99 97 97 98 98 98 98 97 96 95 93 94 93 93 92 93 93 92 91 89 89 89 89 89 87 87 88 87 86 87 87 87
85 89 89 88 88 89 82 71 78 87 89 85 74 64 67 65 61 65 74 70 73 73 70 90 90 88 91 93 94 98 97 98 96 97 97 97 98 99 98 96 95 95 94 93 94 95 95 94 93 91 89 91 90 90 90 88 87 86 87 87 88 88 86
85 89 88 84 88 90 84 80 91 76 66 64 72 68 58 60 59 64 71 75 75 77 75 84 84 88 89 91 93 95 96 97 97 97 97 97 99 99 98 97 95 95 95 94 93 95 96 95 92 92 92 92 92 92 92 92 89 89 89 90 89 88 88
84 84 82 70 77 86 89 90 84 88 81 72 66 68 70 69 63 63 67 73 69 80 82 87 86 88 90 92 93 94 97 98 98 97 99 98 97 97 98 98 97 96 97 97 97 96 97 96 95 95 95 95 95 94 91 91 92 90 89 89 88 87 88
84 72 78 75 78 74 76 77 77 80 79 85 81 79 72 68 64 65 65 66 73 82 90 89 89 89 90 92 92 93 95 98 101 100 99 98 98 97 97 98 98 97 97 99 99 98 99 99 98 98 98 96 96 96 94 93 91 91 91 91 90 88 88
73 77 84 84 83 82 79 77 75 79 74 70 64 63 78 75 69 60 65 64 76 85 92 90 91 93 93 94 94 94 96 99 99 101 101 100 98 97 98 99 100 100 98 98 100 99 99 99 99 98 98 98 97 96 96 95 95 94 93 92 89 88 88
76 81 86 88 89 88 85 82 79 82 80 78 70 58 66 74 74 77 74 68 72 89 90 91 92 93 96 96 97 96 98 98 100 100 103 101 99 98 100 100 102 101 99 98 98 97 96 97 97 98 98 98 97 97 97 96 95 95 96 94 93 89 89
81 85 88 87 88 87 82 83 85 82 77 79 76 74 76 71 73 69 70 64 74 87 89 90 93 92 96 97 98 96 98 100 100 100 100 98 95 95 98 99 101 99 100 98 95 95 94 94 94 96 97 97 97 98 98 98 96 96 96 96 95 91 89
68 74 78 80 85 85 81 80 82 84 84 83 82 82 80 70 74 74 69 61 72 86 89 89 91 93 95 96 98 98 96 98 100 100 98 97 94 94 96 96 96 97 99 96 92 93 91 92 96 95 95 96 97 97 98 99 98 98 96 96 95 93 92
53 53 55 60 67 73 79 82 83 83 82 80 76 70 72 63 69 72 70 70 80 85 86 88 90 92 91 95 97 100 99 96 97 97 96 93 93 91 92 94 94 95 94 94 92 92 91 93 95 93 93 96 97 97 97 99 99 97 97 98 96 94 93
64 67 64 71 74 78 73 76 79 81 83 84 81 77 71 66 69 68 72 74 78 79 83 84 88 90 90 92 94 95 96 97 96 92 92 94 92 90 93 92 93 92 92 91 91 91 93 95 95 95 95 95 96 94 95 98 99 98 95 95 94 94 93
62 65 65 71 70 73 77 76 77 80 80 80 78 73 70 76 71 64 74 75 74 79 83 86 87 90 90 92 93 95 95 94 95 96 90 88 92 93 92 91 91 90 90 90 91 90 92 94 94 95 96 96 95 94 95 96 99 99 98 95 93 93 92
65 66 68 71 70 70 70 74 77 76 79 79 75 75 79 77 70 67 74 75 74 79 86 88 88 89 90 93 95 97 97 97 97 94 94 98 99 95 93 90 90 90 91 90 90 92 92 94 93 94 95 95 94 94 95 95 99 98 96 94 93 93 91
63 66 67 69 68 68 69 71 72 74 76 76 77 77 80 79 73 76 77 76 77 83 86 89 91 92 93 94 95 96 95 97 94 96 95 98 100 101 98 93 93 90 91 91 90 91 90 92 92 94 94 93 94 94 94 96 95 97 95 93 91 91 90
62 66 68 67 67 67 65 69 72 73 74 74 75 76 77 77 77 80 79 75 74 85 88 89 92 92 95 94 94 95 94 94 96 96 97 97 99 101 101 96 94 93 92 92 91 90 90 90 91 92 92 93 94 97 96 96 94 96 97 92 90 90 89
60 65 65 67 67 67 66 66 69 71 72 70 73 71 76 74 71 74 75 71 73 83 88 90 90 91 90 89 90 91 92 96 95 95 96 97 97 99 100 100 97 93 92 91 91 91 92 93 91 92 91 93 94 95 95 95 97 98 96 94 91 89 90
58 64 65 64 65 64 61 64 69 72 73 75 77 78 78 78 79 73 69 72 81 84 87 86 86 89 89 90 91 91 92 92 94 94 96 98 99 99 97 98 95 97 98 97 92 93 95 95 94 94 93 95 92 93 93 94 95 95 93 93 90 89 90
57 61 61 64 59 51 55 74 79 77 73 74 72 74 77 80 81 78 82 82 85 86 86 85 85 86 87 89 91 94 91 91 92 96 97 99 100 101 101 101 98 96 94 94 96 95 92 95 99 96 94 95 94 94 94 94 93 92 91 91 90 89 89
53 59 59 54 49 54 69 75 78 77 79 79 77 78 81 82 83 83 81 83 83 84 86 87 87 88 91 94 94 96 98 96 94 93 95 95 95 96 96 95 96 94 91 90 91 90 94 97 96 96 95 96 96 94 93 92 92 90 91 90 90 89 89
57 55 55 45 51 64 69 74 75 76 77 77 74 72 77 79 81 82 81 83 85 85 86 88 90 89 92 94 94 93 96 97 94 95 95 97 98 98 98 94 90 88 90 90 92 91 93 95 97 97 96 97 98 94 93 92 91 91 90 89 89 89 89
49 53 54 55 64 63 67 67 70 73 70 70 70 66 73 81 82 79 77 80 84 86 88 90 91 92 94 89 89 96 97 95 97 97 97 99 96 93 90 91 90 87 87 87 89 89 89 92 95 96 98 97 96 95 92 93 90 90 90 89 89 89 89
57 52 51 53 53 49 59 69 72 75 75 74 73 70 71 76 77 77 77 76 79 81 84 85 85 86 82 80 84 93 99 99 97 97 97 94 90 90 90 87 87 87 87 88 88 89 89 90 92 94 96 95 93 92 91 91 90 89 90 89 90 89 89
54 52 48 49 48 55 67 70 72 75 76 77 74 69 66 72 75 75 76 77 77 77 78 79 80 80 77 79 85 94 99 100 99 95 93 93 92 88 86 86 87 87 85 85 89 89 88 89 90 92 92 93 93 91 90 90 91 91 90 90 91 90 90
53 53 50 48 56 56 66 71 73 77 78 75 72 57 62 69 75 75 75 74 75 75 74 76 76 75 76 82 87 89 94 95 92 89 86 85 85 86 85 86 85 83 83 85 86 88 88 87 89 90 92 92 91 90 89 93 92 91 90 91 91 92 92
51 48 51 56 58 67 72 72 74 76 77 73 60 53 66 70 73 74 74 75 75 74 73 75 74 79 83 85 86 90 89 89 86 85 84 82 82 82 84 82 80 84 84 84 84 83 84 84 88 90 91 91 90 90 90 89 89 92 92 92 91 91 91
50 52 49 51 59 68 74 76 78 78 70 58 60 66 70 73 73 75 74 74 74 73 72 73 75 78 83 84 87 86 86 85 82 83 83 83 83 83 81 79 81 83 84 82 83 84 85 88 89 90 90 88 88 89 89 89 90 93 93 92 91 91 90
54 53 49 48 40 63 73 75 73 76 62 68 70 73 75 77 76 76 75 74 74 73 72 74 74 77 81 83 84 83 81 81 80 79 80 79 79 79 80 81 82 84 81 80 82 84 88 89 90 90 90 87 87 87 87 88 92 92 92 91 90 90 89
47 48 45 46 59 63 71 68 63 68 71 72 74 74 75 77 76 75 75 75 73 73 71 72 74 75 78 80 80 79 79 79 79 78 77 78 79 79 82 83 82 82 79 80 82 83 84 85 87 89 89 86 86 85 83 85 87 89 89 90 89 89 89
48 51 57 63 61 65 70 70 70 71 73 75 74 74 74 74 76 73 74 73 73 73 72 71 72 73 77 78 80 78 79 79 79 78 77 78 79 80 79 80 80 83 82 78 80 80 81 81 83 84 85 82 81 80 81 84 85 87 87 88 88 88 88
57 60 60 62 64 66 69 72 71 70 72 76 76 74 72 74 73 74 72 72 72 72 71 70 73 74 74 74 76 78 79 79 78 76 76 77 79 80 79 77 78 79 80 79 79 78 79 81 80 81 82 82 79 79 82 82 84 86 86 86 87 87 88
49 44 60 61 62 65 66 66 69 71 72 73 75 73 72 73 74 75 73 72 71 70 69 68 68 70 73 72 73 74 74 75 75 75 75 76 76 77 75 76 77 78 78 78 77 77 77 81 82 83 82 82 82 83 84 86 85 85 86 86 85 86 87
47 48 56 59 62 63 65 66 66 66 68 70 72 73 73 74 74 74 74 74 72 71 68 67 68 68 70 70 71 71 72 73 75 75 75 75 75 76 76 76 77 78 78 77 76 76 76 77 78 78 79 79 80 82 83 85 85 84 83 84 85 85 87
55 58 60 60 61 62 64 67 69 70 70 69 69 69 70 71 72 73 73 75 73 70 68 68 67 67 68 70 71 72 72 73 73 73 74 75 75 75 75 75 75 75 75 75 76 76 76 77 77 77 78 78 79 79 82 83 83 83 82 81 82 81 80
48 51 56 59 53 56 64 67 67 65 64 62 62 66 68 69 69 71 71 70 72 72 70 69 67 64 64 68 70 71 72 72 73 74 75 75 75 74 75 75 75 75 75 74 75 75 75 76 77 77 77 79 80 81 81 81 82 82 81 81 80 80 81
50 58 61 61 59 58 59 61 64 64 62 59 57 58 62 65 69 71 70 68 67 67 68 70 68 66 66 66 68 68 68 68 70 73 74 74 74 74 75 74 74 74 74 75 75 74 75 76 77 77 76 77 79 80 81 82 82 80 79 78 78 79 79
57 59 60 61 59 56 60 64 63 63 63 61 59 60 63 65 69 72 71 69 66 66 67 67 68 68 68 68 68 67 67 68 69 70 72 74 74 74 75 75 74 74 74 74 75 74 76 76 77 76 76 77 77 79 79 80 80 80 79 78 77 77 78
54 60 61 62 61 62 64 63 62 62 63 62 60 60 62 65 69 71 71 68 66 65 65 66 68 70 69 69 68 67 68 69 70 70 70 70 71 72 73 74 74 74 74 75 75 76 76 76 76 76 76 77 78 79 80 81 81 80 79 78 77 77 78
MSLP
1001.09 1001.73 1001.34 1002.02 1001.73 1008.26 1004.73 1005.22 1007.05 1005.38 1003.22 1004.97 1007.49 1006.85 1006.90 1006.90 1007.82 1008.14 1005.29 1006.41 1004.34 1001.49 1000.82 1000.53 1000.41 1000.34 1000.05 999.53 999.46 999.38 999.46 999.34 999.38 999.93 1000.02 1000.09 1000.09 1000.26 1000.61 1000.93 1001.22 1001.49 1001.82 1002.26 1002.41 1002.70 1003.05 1003.49 1003.90 1004.14 1004.41 1004.73 1005.17 1005.73 1006.29 1006.93 1007.38 1007.70 1008.09 1008.49 1008.82 1009.17 1009.58
1000.49 999.78 1000.29 1001.02 1001.09 1000.97 1003.22 1006.46 1004.34 1002.66 1002.14 1003.22 1006.46 1009.58 1008.02 1009.34 1010.17 1007.93 1005.41 1006.53 1005.85 1006.02 1006.38 999.46 1000.05 1000.90 1000.46 1000.09 999.70 999.22 999.09 999.17 999.82 999.78 999.70 999.61 999.61 999.49 999.53 999.82 1000.22 1000.73 1001.09 1001.49 1001.73 1001.93 1002.26 1002.53 1002.82 1003.26 1003.70 1003.90 1004.46 1004.90 1005.41 1006.22 1006.82 1007.34 1007.49 1007.85 1008.29 1008.61 1009.14
1000.29 999.61 1000.66 1002.05 1000.73 1000.17 1001.93 1003.34 1000.38 1004.93 1008.29 1009.26 1006.46 1008.17 1010.78 1010.09 1010.17 1008.38 1005.61 1004.49 1004.38 1003.93 1003.85 1001.29 1001.34 1000.66 1000.46 999.93 999.41 999.29 999.34 999.22 999.26 999.29 999.29 999.05 998.90 999.02 999.46 999.82 1000.22 1000.46 1000.70 1000.85 1001.02 1001.02 1000.93 1001.29 1001.82 1002.26 1002.73 1003.29 1003.85 1004.38 1004.73 1005.22 1005.90 1006.14 1006.58 1006.97 1007.46 1007.85 1008.26
999.90 1000.58 1001.41 1004.61 1003.14 1001.17 1000.53 1000.38 1002.05 1001.14 1003.38 1005.85 1007.93 1007.05 1006.09 1006.38 1008.05 1008.02 1006.26 1004.97 1005.66 1002.29 1001.82 1000.34 1000.53 1000.02 999.46 999.26 999.34 999.41 998.78 998.49 998.49 998.53 998.53 998.73 998.97 998.97 998.97 999.17 999.41 999.61 999.70 999.85 1000.14 1000.49 1000.85 1001.09 1001.46 1001.78 1002.26 1002.70 1003.26 1003.61 1004.26 1004.70 1005.05 1005.61 1006.22 1006.70 1007.05 1007.58 1007.70
999.82 1003.17 1001.05 1002.17 1001.85 1003.53 1003.53 1003.58 1003.53 1002.85 1003.41 1001.38 1002.90 1003.78 1005.53 1006.49 1007.49 1006.85 1006.58 1006.61 1003.58 1000.41 998.29 999.26 999.41 999.22 999.09 998.73 998.97 998.73 998.38 997.70 997.38 997.61 997.70 997.85 998.17 998.41 998.46 998.46 998.66 998.93 999.09 999.22 999.38 999.66 999.93 1000.34 1000.93 1001.53 1001.93 1002.38 1002.61 1003.05 1003.66 1004.02 1004.73 1005.22 1005.61 1005.85 1006.29 1006.73 1007.02
1001.78 1000.73 999.34 999.49 1000.05 1000.58 1001.70 1002.58 1003.41 1002.41 1004.41 1005.61 1007.61 1007.49 1003.66 1004.38 1005.78 1007.09 1007.14 1006.93 1002.41 999.93 997.93 998.34 998.53 998.17 998.22 997.97 998.05 998.17 997.90 997.49 997.09 996.78 996.90 997.14 997.66 997.70 997.78 997.78 997.85 998.17 998.61 998.85 998.97 999.29 999.70 1000.09 1000.46 1000.85 1000.97 1001.53 1002.17 1002.61 1002.78 1003.26 1003.73 1004.29 1004.70 1005.22 1005.58 1005.97 1006.38
1001.02 999.78 998.38 998.29 998.14 998.82 999.93 1000.93 1001.97 1001.22 1002.02 1002.70 1005.17 1007.97 1005.78 1004.46 1003.82 1003.29 1003.82 1005.70 1003.73 998.26 998.09 997.85 997.93 997.78 997.41 997.14 997.17 997.61 997.22 997.02 996.78 996.78 996.53 996.70 997.09 997.49 997.49 997.66 997.70 997.85 998.26 998.61 998.78 999.09 999.41 999.58 999.73 1000.05 1000.53 1000.85 1001.26 1001.66 1002.09 1002.53 1003.02 1003.29 1003.46 1003.97 1004.46 1005.09 1005.61
999.14 998.29 997.53 998.29 998.09 998.73 1000.34 1000.09 999.61 1000.61 1001.90 1001.58 1002.90 1003.41 1002.53 1004.53 1004.05 1005.38 1005.05 1006.70 1003.41 998.97 998.38 998.05 997.66 997.49 996.82 996.41 996.61 997.17 996.85 996.53 996.41 996.53 996.70 997.09 997.82 997.78 997.58 997.41 997.46 997.66 997.85 998.22 998.58 998.97 999.29 999.49 999.73 999.82 999.90 1000.05 1000.34 1000.78 1001.22 1001.61 1002.22 1002.46 1002.82 1003.17 1003.73 1004.46 1005.02
1002.93 1001.61 1000.53 1000.29 998.73 998.82 999.61 999.97 999.58 999.34 999.70 1000.41 1000.73 1001.14 1001.02 1004.09 1003.05 1003.26 1005.05 1007.09 1003.97 998.85 998.17 998.14 997.70 997.46 997.22 996.90 996.38 996.41 997.17 996.85 996.61 996.53 997.02 997.34 997.58 997.78 997.70 997.66 997.66 997.66 997.73 998.14 998.53 998.58 998.90 999.17 999.26 999.41 999.66 999.85 999.93 1000.17 1000.38 1000.73 1001.05 1001.41 1002.05 1002.41 1003.05 1003.66 1004.22
1006.17 1006.05 1005.66 1004.05 1002.53 1000.90 999.66 999.17 999.05 999.34 999.82 1000.61 1001.97 1004.05 1003.17 1005.66 1003.61 1003.02 1003.97 1003.97 1000.61 999.53 999.09 998.70 998.14 997.78 997.85 997.02 996.41 995.93 996.26 997.02 997.17 997.14 997.46 997.73 997.78 998.02 997.90 997.82 997.85 997.93 997.85 997.93 998.34 998.58 998.73 998.90 999.02 999.22 999.38 999.49 999.61 999.78 999.90 999.85 1000.41 1000.97 1001.46 1001.78 1002.29 1003.02 1003.53
1002.26 1001.97 1002.70 1001.49 1000.14 999.38 1001.26 1000.38 999.90 999.53 999.38 999.26 1000.22 1001.38 1002.93 1004.66 1003.93 1004.05 1002.53 1002.41 1001.22 1001.14 1000.38 999.82 998.85 998.26 998.41 997.97 997.26 997.09 997.02 996.73 996.82 997.49 997.78 997.58 997.78 998.02 997.93 997.93 997.73 997.82 998.05 998.14 998.14 998.29 998.29 998.38 998.53 998.73 998.93 999.17 999.34 999.53 999.73 999.70 999.85 1000.38 1000.82 1001.29 1001.82 1002.34 1002.82
1004.17 1003.38 1003.09 1001.85 1001.73 1000.78 999.97 1000.26 1000.41 999.61 999.61 999.78 1000.61 1001.73 1002.58 1000.93 1003.09 1004.70 1001.73 1001.53 1002.82 1001.22 1000.17 999.41 998.82 998.17 998.05 997.70 997.26 997.02 996.93 997.34 997.17 997.02 997.90 997.97 997.78 997.66 997.73 997.85 998.02 998.17 998.09 998.05 998.14 998.22 998.22 998.29 998.34 998.46 998.46 998.61 998.90 999.17 999.49 999.49 999.58 999.93 1000.29 1000.82 1001.34 1001.78 1002.26
1003.66 1003.41 1002.78 1001.97 1002.09 1001.93 1001.85 1001.05 1000.29 1000.61 999.97 1000.02 1000.93 1000.90 1000.38 1000.61 1002.70 1003.70 1001.70 1001.34 1002.53 1001.38 999.70 998.90 998.78 998.26 998.14 997.70 997.05 996.46 996.49 996.70 996.41 997.05 997.29 996.90 996.61 997.14 997.66 997.90 997.85 997.97 998.09 998.14 998.09 998.05 998.05 998.02 998.17 998.17 998.26 998.34 998.49 998.73 998.90 999.09 999.22 999.41 999.66 1000.29 1000.85 1001.26 1001.73
1004.02 1003.22 1002.97 1002.53 1002.66 1002.66 1002.61 1002.05 1002.05 1001.41 1001.05 1001.02 1000.85 1000.78 1000.09 1000.26 1001.22 1001.02 1000.93 1001.26 1001.49 1000.29 999.58 998.61 997.93 997.34 997.38 997.17 996.66 996.41 996.70 996.73 996.78 997.02 997.22 996.97 996.46 996.22 996.70 997.22 997.34 997.53 997.49 997.58 997.73 997.73 997.85 997.85 997.90 997.93 998.02 998.09 998.14 998.41 998.73 998.85 999.02 998.93 999.38 1000.02 1000.53 1000.90 1001.29
1004.02 1003.14 1002.70 1003.02 1003.29 1003.22 1003.66 1002.61 1002.02 1001.82 1001.61 1001.53 1001.26 1001.38 1000.93 1000.66 1000.73 1000.26 1000.58 1001.41 1001.85 999.17 998.14 998.09 997.29 997.02 996.93 997.22 997.66 997.61 997.09 996.93 996.85 996.90 996.97 996.82 996.26 995.85 995.78 996.38 996.78 996.90 997.14 997.22 997.34 997.49 997.53 997.53 997.53 997.58 997.58 997.61 997.78 997.90 998.17 998.34 998.66 998.61 998.97 999.78 1000.26 1000.58 1000.90
1004.38 1003.29 1003.58 1002.93 1003.02 1003.29 1003.49 1003.22 1002.41 1002.02 1002.02 1002.58 1001.82 1002.34 1001.02 1001.78 1002.41 1001.78 1001.73 1002.49 1002.09 999.58 997.97 997.90 997.85 997.66 998.05 998.46 998.29 998.14 997.90 997.17 996.90 996.93 996.61 996.41 996.22 995.93 995.73 995.58 996.05 996.73 996.97 997.14 997.14 997.14 996.93 996.85 997.02 997.09 997.22 997.22 997.41 997.49 997.49 997.78 997.93 998.22 998.78 999.34 999.90 1000.17 1000.38
1004.58 1003.22 1003.49 1003.78 1003.66 1004.09 1004.26 1003.05 1001.85 1001.34 1001.05 1000.78 1000.38 1000.22 1000.14 1000.41 1000.58 1001.85 1002.66 1001.82 999.70 998.90 998.02 998.82 998.85 998.61 998.34 998.14 998.02 998.02 997.58 997.22 997.02 996.90 996.46 996.02 995.73 995.58 995.58 995.53 995.90 995.90 995.97 995.97 996.41 996.34 996.14 996.17 996.29 996.22 996.41 996.85 997.05 996.93 997.17 997.41 997.82 998.22 998.61 998.97 999.53 999.97 1000.22
1004.85 1004.14 1004.46 1003.90 1004.90 1006.29 1004.02 999.29 998.58 999.49 1000.73 1000.70 1001.38 1000.93 1000.29 999.53 999.46 999.90 999.05 998.97 998.14 998.09 998.38 998.90 998.97 998.82 998.29 997.70 997.09 996.61 997.09 997.29 997.05 996.53 996.14 995.82 995.53 995.26 995.02 994.97 995.34 995.53 995.70 995.73 995.53 995.66 995.82 995.61 995.29 995.41 995.58 995.82 995.90 996.22 996.70 997.09 997.53 997.78 998.26 998.66 999.14 999.70 999.97
1006.34 1004.85 1005.05 1005.93 1006.61 1004.46 1000.58 999.41 998.93 999.17 999.02 999.05 999.58 999.29 998.82 998.70 998.58 998.78 999.02 998.82 998.66 998.34 998.09 998.02 997.82 997.53 997.05 996.49 996.46 996.17 995.58 995.78 996.29 996.61 996.41 996.22 996.02 995.90 995.66 995.73 995.46 995.53 995.78 995.90 995.85 995.90 995.61 995.17 994.97 995.02 995.26 995.29 995.70 996.09 996.22 996.70 997.02 997.49 997.82 998.22 998.66 999.02 999.41
1005.70 1005.73 1005.26 1007.38 1004.73 1001.90 1000.90 999.73 999.70 999.41 999.49 999.61 1000.53 1001.09 999.82 999.14 998.78 998.53 998.90 998.38 997.97 997.97 997.93 997.66 997.05 997.05 996.61 996.09 995.85 996.05 995.85 995.70 996.26 996.41 996.22 995.82 995.49 995.41 995.17 995.49 995.85 996.05 995.85 995.78 995.61 995.53 994.97 994.93 994.73 994.66 994.90 994.90 995.29 995.70 995.85 996.38 996.78 997.09 997.58 998.05 998.38 998.58 998.90
1007.26 1005.66 1005.26 1004.17 1001.41 1002.34 1001.49 1001.22 1000.61 1000.17 1000.93 1001.09 1001.14 1002.05 1000.02 998.38 998.38 999.05 999.58 998.85 998.02 997.53 997.17 996.82 996.58 996.14 996.05 996.90 996.90 995.53 995.38 995.41 995.22 995.34 995.26 994.97 995.26 995.53 995.78 995.70 995.78 995.73 995.78 995.78 995.49 995.29 995.26 994.97 994.66 994.53 994.38 994.58 994.93 995.38 995.90 996.09 996.46 996.93 997.34 997.82 997.97 998.05 998.26
1005.58 1006.09 1005.78 1005.02 1004.85 1005.61 1002.85 1000.61 1000.53 999.90 1000.09 1000.26 1000.53 1001.22 1000.46 999.38 999.46 999.49 999.61 999.82 999.17 998.70 998.14 997.97 997.70 997.61 998.73 999.53 997.97 995.70 994.61 994.34 994.82 994.61 994.82 995.14 995.61 995.70 995.73 995.82 995.85 995.73 995.58 995.38 995.14 995.14 995.05 994.93 994.61 994.34 994.26 994.46 994.85 995.34 995.78 995.97 996.38 996.82 997.09 997.29 997.38 997.70 998.02
1006.02 1006.34 1006.70 1005.49 1005.53 1003.38 1000.49 1000.17 1000.34 1000.05 999.85 999.85 1000.17 1001.78 1002.02 1000.38 999.73 1000.05 999.82 999.82 999.58 999.53 999.53 999.29 998.90 999.34 1000.38 999.29 997.34 994.90 993.90 993.73 994.05 994.90 995.17 995.26 995.38 995.73 995.97 996.09 996.02 995.82 995.78 995.58 995.02 994.78 994.85 994.97 994.61 994.38 994.41 994.53 994.97 995.49 995.73 995.93 996.14 996.58 996.78 996.85 997.14 997.49 997.70
1006.09 1005.61 1005.97 1005.85 1003.97 1003.61 1001.22 1000.66 1000.26 999.66 999.46 1000.05 1000.97 1004.41 1002.14 1001.02 999.90 1000.14 999.97 1000.41 1000.22 1000.09 1000.05 999.73 999.82 1000.17 1000.34 998.66 996.78 996.02 994.58 994.46 995.05 995.58 996.05 996.26 996.29 996.09 995.93 995.82 995.90 995.97 995.82 995.53 995.34 995.05 995.02 995.02 994.49 994.41 994.49 994.70 995.05 995.46 995.66 995.70 996.05 996.17 996.22 996.34 996.46 996.66 996.93
1006.29 1006.66 1005.49 1004.29 1003.14 1001.38 1000.41 1000.38 1000.22 999.85 999.66 1000.49 1003.49 1004.26 1001.70 1000.93 1000.26 1000.22 1000.22 1000.14 1000.05 1000.17 1000.34 999.97 1000.34 998.78 997.85 997.22 996.85 996.09 996.02 996.05 996.34 996.38 996.46 996.58 996.58 996.61 996.41 996.46 996.29 995.97 995.90 995.82 995.78 995.58 995.38 995.05 994.73 994.53 994.53 994.93 995.29 995.38 995.49 995.78 996.02 995.85 995.78 995.93 996.17 996.46 996.70
1005.85 1005.49 1006.02 1005.09 1003.34 1000.73 1000.05 999.61 999.53 999.38 1001.41 1003.82 1002.58 1001.41 1000.66 1000.09 1000.17 999.82 1000.17 1000.26 1000.17 1000.29 1000.41 1000.22 999.82 998.97 997.93 997.29 996.90 997.02 996.78 996.82 997.02 996.85 996.73 996.61 996.49 996.38 996.53 996.70 996.41 996.17 996.09 996.14 995.78 995.46 995.02 994.73 994.58 994.53 994.70 995.14 995.29 995.46 995.66 995.93 995.78 995.41 995.53 995.85 996.09 996.38 996.70
1005.29 1005.05 1005.53 1005.41 1007.09 1001.70 1000.49 1000.02 1000.53 1000.02 1003.05 1000.53 1000.73 999.97 999.73 999.53 999.49 999.53 999.70 1000.05 999.97 1000.22 1000.41 999.93 999.70 999.22 998.26 997.70 997.34 997.34 997.70 997.53 997.53 997.46 997.38 997.34 997.22 997.14 996.97 996.70 996.41 996.29 996.53 996.49 996.14 995.66 995.09 994.73 994.53 994.49 994.70 995.29 995.46 995.53 995.85 995.73 995.22 995.29 995.58 995.82 996.14 996.41 996.73
1005.66 1005.58 1005.78 1005.17 1002.78 1002.82 1001.49 1001.73 1002.38 1000.97 1000.93 1000.26 1000.02 1000.02 999.61 999.38 999.58 999.66 999.66 999.53 999.93 1000.02 1000.38 1000.22 999.70 999.22 998.58 997.97 997.85 998.14 998.09 997.85 997.61 997.61 997.70 997.58 997.34 997.22 996.90 996.70 996.61 996.58 996.82 996.58 996.29 995.97 995.66 995.38 994.93 994.66 994.85 995.46 995.61 995.93 996.41 996.02 995.66 995.61 995.78 995.97 996.17 996.53 996.78
1006.34 1004.09 1002.97 1002.34 1003.49 1002.73 1001.97 1001.78 1001.61 1001.34 1000.73 1000.46 1000.49 1000.58 1000.38 1000.22 999.66 1000.09 999.93 1000.02 999.93 999.90 1000.02 1000.05 999.85 999.46 998.61 998.38 998.02 998.38 998.17 997.93 997.70 997.78 997.93 997.73 997.49 997.22 997.34 997.29 996.97 996.58 996.90 997.09 996.78 996.61 996.29 996.05 995.66 995.46 995.46 995.97 996.38 996.66 996.46 996.05 996.14 996.09 996.09 996.22 996.46 996.70 996.85
1005.61 1004.73 1004.41 1003.90 1003.14 1002.61 1002.05 1001.90 1002.05 1002.14 1001.66 1000.66 1000.49 1000.70 1000.82 1000.38 1000.61 1000.26 1000.34 1000.26 1000.17 1000.02 999.97 1000.14 999.53 999.17 998.93 999.02 998.78 998.29 998.02 997.97 997.90 998.09 998.05 997.93 997.61 997.34 997.41 997.53 997.38 997.17 997.14 997.17 997.17 997.22 996.90 996.46 996.26 996.02 995.93 996.09 996.78 996.85 996.38 996.29 996.22 996.22 996.26 996.46 996.66 996.73 996.78
1006.85 1006.49 1003.90 1003.66 1003.34 1002.73 1002.82 1002.93 1002.49 1002.22 1001.93 1001.46 1000.73 1000.85 1000.93 1000.78 1000.49 1000.14 1000.14 1000.22 1000.29 1000.26 1000.14 1000.17 1000.09 999.58 999.05 999.17 998.85 998.61 998.58 998.49 998.41 998.29 998.17 998.05 997.93 997.85 997.93 997.78 997.53 997.41 997.49 997.73 997.73 997.58 997.41 996.73 996.46 996.26 996.38 996.38 996.49 996.29 996.29 996.09 996.14 996.17 996.26 996.46 996.78 996.90 996.93
1006.97 1006.22 1005.09 1004.46 1003.97 1003.53 1002.93 1002.70 1002.82 1002.66 1002.22 1001.93 1001.46 1001.09 1000.90 1000.70 1000.53 1000.22 1000.05 999.93 1000.05 999.93 1000.14 1000.17 999.97 999.78 999.46 999.34 999.26 999.22 999.02 998.82 998.61 998.49 998.29 998.26 998.22 998.02 997.82 997.73 997.53 997.53 997.66 997.93 998.02 997.90 997.82 997.49 997.22 997.09 997.02 996.97 996.90 996.70 996.53 996.38 996.34 996.53 996.73 996.78 996.93 997.02 996.97
1005.26 1004.70 1004.58 1004.41 1004.17 1003.78 1003.09 1002.41 1002.14 1001.93 1001.85 1001.93 1001.82 1001.66 1001.41 1001.02 1000.78 1000.41 1000.22 999.90 999.85 999.93 1000.09 1000.09 1000.09 1000.05 999.82 999.49 999.26 999.17 998.97 998.85 998.85 998.82 998.49 998.29 998.29 998.26 998.22 998.05 997.90 998.05 998.14 998.26 998.22 998.14 998.09 997.85 997.73 997.58 997.49 997.38 997.29 997.26 997.02 996.85 996.82 996.97 997.29 997.41 997.46 997.70 998.02
1005.85 1005.02 1004.26 1004.02 1004.70 1003.46 1002.02 1001.70 1002.17 1002.70 1002.97 1003.29 1003.14 1002.29 1001.78 1001.34 1001.14 1000.66 1000.53 1000.53 999.97 999.78 999.90 1000.02 1000.22 1000.61 1000.61 1000.05 999.53 999.29 999.05 998.90 998.90 998.73 998.49 998.38 998.41 998.46 998.22 998.05 998.14 998.29 998.38 998.46 998.49 998.46 998.38 998.05 997.93 997.90 997.82 997.61 997.41 997.29 997.34 997.26 997.17 997.46 997.61 997.70 997.90 998.05 998.02
1004.85 1003.70 1003.41 1003.61 1004.09 1004.09 1003.70 1003.38 1002.97 1003.02 1003.26 1003.78 1004.05 1003.61 1002.90 1002.34 1001.26 1000.58 1000.53 1000.70 1000.58 1000.38 1000.22 999.90 1000.14 1000.41 1000.41 1000.29 999.82 999.73 999.70 999.58 999.22 998.82 998.61 998.61 998.58 998.58 998.34 998.38 998.41 998.49 998.53 998.49 998.58 998.66 998.49 998.26 998.17 998.09 998.09 997.93 997.78 997.61 997.49 997.41 997.49 997.82 997.97 998.26 998.34 998.38 998.41
1004.41 1004.17 1004.05 1003.90 1004.17 1004.17 1003.29 1003.02 1003.22 1003.22 1003.17 1003.58 1003.70 1003.34 1002.97 1002.22 1001.29 1000.46 1000.38 1000.49 1000.73 1000.66 1000.34 1000.29 1000.09 1000.14 1000.09 1000.02 1000.02 1000.22 999.93 999.58 999.53 999.46 999.02 998.66 998.61 998.58 998.46 998.41 998.58 998.70 998.78 998.78 998.78 998.82 998.61 998.49 998.41 998.34 998.34 998.29 998.22 998.05 997.93 997.93 997.90 998.09 998.22 998.38 998.61 998.70 998.66
1004.38 1004.05 1004.05 1003.93 1003.78 1003.41 1003.02 1003.05 1003.14 1003.17 1003.17 1003.49 1003.49 1003.17 1002.93 1002.26 1001.29 1000.53 1000.29 1000.58 1000.66 1000.73 1000.53 1000.29 1000.09 999.78 999.82 1000.02 1000.09 1000.22 1000.02 999.70 999.41 999.46 999.46 999.29 999.09 998.97 998.85 998.78 998.85 998.90 998.93 998.90 998.85 998.85 998.85 998.82 998.70 998.61 998.61 998.58 998.38 998.29 998.17 998.14 998.09 998.26 998.38 998.49 998.70 998.78 998.78
Wind_Speed
17 21 19 18 15 12 13 14 17 16 11 12 10 8 5 7 6 11 8 12 13 10 10 9 7 6 8 10 11 12 12 14 14 14 14 16 16 17 17 19 19 21 20 20 20 21 20 20 20 21 22 22 22 20 20 21 21 20 21 21 20 19 18
18 19 20 20 20 12 10 15 15 12 12 12 10 10 7 10 12 10 11 15 11 10 10 11 19 18 16 16 15 14 13 13 14 14 14 15 16 17 20 20 19 20 21 22 21 20 21 22 23 23 23 22 21 20 21 21 21 22 21 21 21 19 19
18 18 18 18 20 21 12 11 12 14 14 14 10 7 13 11 13 10 13 14 14 11 10 3 8 15 16 16 16 16 15 15 15 15 17 16 17 16 16 17 17 18 20 21 22 23 25 25 23 23 23 22 20 20 20 22 23 23 23 20 20 18 19
18 16 16 17 17 20 19 10 13 14 9 11 12 12 7 8 10 9 11 14 12 9 11 12 7 9 11 12 14 15 16 16 15 15 15 16 16 15 16 16 18 19 21 23 23 23 23 22 22 21 23 21 23 23 22 21 21 20 20 20 19 19 20
17 16 15 17 17 18 17 16 13 13 11 6 9 10 13 10 10 10 8 9 6 5 7 12 14 9 8 8 9 11 12 14 17 16 15 15 15 15 15 16 17 20 20 21 21 21 21 20 18 18 19 21 21 20 22 23 22 22 23 22 21 19 18
16 13 14 17 19 18 17 16 15 14 14 12 12 12 10 13 10 7 8 9 2 5 3 7 11 12 13 13 12 10 11 12 12 11 14 14 14 16 16 17 17 17 17 18 18 17 16 18 20 21 20 20 20 21 21 22 22 21 23 22 20 19 19
11 13 15 17 17 18 19 17 16 16 15 12 10 9 11 11 12 11 10 9 6 5 6 3 2 3 6 9 12 12 10 10 11 11 11 10 9 10 11 12 12 13 14 14 16 18 19 20 20 21 20 20 21 23 22 20 22 23 23 22 21 19 19
7 11 12 17 19 20 19 19 18 18 18 16 12 10 6 9 10 12 9 11 4 5 4 6 9 9 9 6 8 11 10 8 6 5 4 6 6 7 7 8 9 9 11 13 13 16 18 17 18 20 20 20 20 21 22 21 24 24 23 21 20 20 19
6 8 9 13 17 17 15 15 17 19 18 19 16 13 10 11 12 13 10 12 5 6 5 2 2 5 6 6 5 5 8 8 7 4 3 4 5 7 9 11 11 11 12 14 14 15 16 17 18 18 19 19 20 20 21 22 22 23 21 20 20 21 21
16 17 17 17 18 18 13 14 17 21 21 21 17 15 12 10 10 14 12 9 3 7 5 6 6 7 5 4 4 4 5 4 4 2 3 3 5 6 7 8 10 12 11 11 12 14 13 16 17 16 16 18 19 19 21 21 20 20 21 20 20 20 20
11 4 5 8 5 14 16 18 19 19 21 20 18 12 13 13 11 14 14 11 6 7 6 8 7 5 6 6 6 4 4 3 3 4 3 4 4 5 7 8 8 8 10 13 14 15 15 17 17 17 18 18 18 17 19 20 18 19 19 19 20 20 20
3 3 4 6 6 6 16 20 20 17 18 21 21 18 15 9 10 13 11 12 14 8 6 7 7 7 3 1 3 2 1 4 7 5 2 6 6 6 7 8 9 11 12 12 12 14 15 15 16 16 17 18 17 18 18 19 19 18 17 19 20 20 19
3 3 3 3 1 2 1 5 11 18 16 17 21 20 18 15 13 11 7 13 14 13 11 6 6 6 6 7 7 4 6 8 5 3 6 7 4 8 8 8 9 9 10 10 12 12 13 15 17 19 17 17 16 16 17 17 19 19 18 18 20 20 19
4 3 3 2 4 2 6 9 8 9 12 15 16 16 17 21 16 13 13 10 13 13 15 16 14 10 9 9 10 13 15 13 12 11 8 7 5 3 6 9 8 9 10 10 11 11 12 15 16 17 17 17 19 18 17 17 18 18 16 18 18 19 19
5 5 6 3 6 5 7 9 10 11 11 11 13 13 15 14 16 19 17 17 16 10 10 11 11 12 12 13 13 14 15 18 18 16 13 11 11 9 10 4 8 7 8 10 10 12 13 15 16 16 16 16 17 19 18 18 18 18 18 16 17 18 18
7 7 8 7 4 7 10 11 13 14 15 16 13 13 13 14 14 14 13 14 12 9 11 10 12 11 10 11 12 12 13 16 16 17 17 15 14 14 13 10 2 6 8 10 11 13 14 15 16 16 15 16 17 18 18 18 18 18 18 17 18 17 17
7 6 4 5 6 7 12 17 17 17 17 16 14 14 14 15 13 15 16 13 8 9 9 10 9 12 14 14 13 13 14 13 14 15 17 17 17 16 15 13 6 6 7 7 10 11 11 13 15 17 16 16 17 17 16 15 13 15 17 18 16 16 15
5 3 2 2 5 12 12 3 12 19 19 17 17 15 15 15 16 13 12 11 9 10 11 12 11 12 13 12 12 12 11 12 14 16 16 17 17 17 16 12 7 5 5 5 5 7 9 11 13 13 15 18 16 15 14 14 16 16 17 16 15 15 15
6 3 3 5 13 11 5 4 3 1 8 13 16 15 16 17 17 18 18 15 14 11 8 8 8 9 10 12 14 14 13 11 11 12 14 14 13 13 12 10 11 7 5 5 6 7 8 10 10 11 14 15 13 13 15 17 16 16 17 17 15 15 16
6 6 7 10 9 6 1 3 3 3 3 4 6 13 14 12 12 14 17 17 17 16 15 14 13 13 14 14 13 12 14 14 13 15 14 14 15 15 11 7 4 4 6 7 7 6 5 7 9 11 12 13 15 15 15 16 15 16 15 15 15 14 16
8 8 9 11 4 6 6 6 5 2 5 3 4 9 12 14 9 3 3 5 8 10 12 13 14 15 15 12 10 13 14 14 14 15 15 13 8 5 5 6 6 4 6 8 8 7 7 7 8 9 10 12 14 14 15 16 15 15 15 15 16 16 16
8 8 8 9 10 12 8 6 7 3 5 2 1 4 5 8 4 4 3 4 6 9 8 7 7 7 5 11 11 12 15 14 14 12 9 5 4 5 5 4 5 6 6 7 8 8 8 7 7 6 9 11 12 13 13 14 14 14 16 17 16 14 14
8 10 11 10 9 6 4 6 8 6 2 2 3 2 9 7 7 5 3 4 5 6 6 6 6 5 9 9 9 10 14 11 10 9 6 5 3 1 2 3 4 5 5 6 6 5 6 6 6 6 8 10 12 12 12 13 14 15 16 16 15 14 14
10 10 11 12 7 6 6 6 5 6 4 2 6 7 6 9 8 6 3 5 6 7 7 6 5 6 8 8 3 12 10 5 3 1 2 1 0 0 1 1 3 3 4 3 2 2 3 2 1 6 8 10 11 11 11 12 14 15 15 14 13 14 14
12 13 11 8 6 6 6 4 4 5 2 4 6 8 5 3 5 2 3 5 5 6 8 6 6 5 6 7 10 9 6 3 2 3 3 2 2 3 4 4 5 2 1 1 2 2 2 0 2 5 7 9 10 9 10 11 12 12 11 11 12 12 12
12 12 13 11 8 3 2 8 11 3 5 6 7 4 3 1 2 1 2 4 3 4 7 7 7 9 12 13 12 10 7 3 3 3 2 2 2 2 3 3 3 1 2 2 3 4 3 2 3 5 6 7 7 7 8 9 9 8 8 9 9 11 11
10 10 11 9 10 5 4 5 6 8 10 3 6 2 2 2 4 5 1 2 2 3 7 8 9 12 12 12 10 6 4 2 1 2 3 2 3 4 4 2 3 2 2 3 5 5 5 5 3 5 6 7 7 7 6 5 5 6 6 7 8 9 10
11 11 12 7 1 7 9 7 5 2 6 11 8 8 7 2 4 4 5 2 3 4 7 10 10 11 12 9 8 9 8 2 1 1 1 2 1 1 1 3 3 3 3 3 5 6 7 7 6 5 7 7 7 9 8 4 4 4 5 5 6 8 9
5 6 6 6 14 11 8 8 7 10 9 8 8 7 6 6 3 3 5 4 4 4 7 9 10 10 9 9 9 9 8 4 3 2 1 1 1 1 2 3 3 3 4 5 5 7 6 8 8 8 8 9 10 9 6 4 4 3 3 5 6 7 8
8 13 14 13 13 13 11 9 9 11 13 10 8 9 9 5 6 5 5 4 5 5 5 8 8 8 8 8 8 8 7 6 3 1 2 3 2 2 3 4 3 4 4 5 6 8 8 8 8 8 8 9 10 7 5 4 3 3 3 4 4 5 5
7 7 4 10 12 13 13 12 11 11 11 11 9 8 7 6 6 6 3 5 4 4 3 3 4 6 6 7 6 3 2 2 3 4 3 2 1 1 3 3 3 3 4 4 6 7 9 8 8 9 9 8 8 6 6 5 5 3 3 4 4 4 4
10 12 12 15 16 16 17 14 11 10 11 11 11 9 8 8 6 6 4 4 3 2 2 1 2 3 3 5 4 5 4 3 3 3 4 3 2 2 3 4 3 4 4 5 5 7 8 7 8 8 8 8 7 6 5 5 5 5 5 4 5 4 4
10 13 14 16 17 18 18 19 15 11 9 11 12 10 9 9 8 5 3 3 1 1 2 1 2 2 1 3 3 4 3 3 2 2 3 3 3 3 4 4 4 5 4 5 6 7 7 7 7 7 8 7 7 6 5 5 5 6 6 6 6 7 5
12 12 9 6 8 9 9 9 4 8 10 13 16 14 12 10 7 5 4 2 1 2 3 3 3 4 5 4 2 2 3 3 3 4 4 5 5 6 6 6 7 7 6 6 6 7 7 6 7 8 8 8 7 6 5 5 5 6 6 6 6 5 5
12 10 11 8 9 12 13 13 12 11 10 9 12 16 16 14 9 6 3 2 3 4 4 3 4 4 3 4 2 5 4 5 5 4 5 6 7 7 8 9 9 9 9 9 9 9 8 7 8 9 9 9 8 8 7 7 6 7 7 7 6 6 6
19 18 17 16 15 16 17 15 14 14 11 9 13 15 16 18 13 6 4 4 4 4 4 5 4 5 5 5 6 7 7 7 7 6 7 8 9 9 9 10 11 11 11 11 11 11 9 9 10 10 10 9 9 8 8 8 7 7 7 6 7 7 6
16 13 14 15 16 17 15 14 13 14 13 11 12 15 16 17 10 6 7 7 6 5 4 5 5 5 7 7 6 6 8 8 9 9 8 9 8 8 10 11 12 11 11 10 10 10 9 9 9 10 11 10 9 9 9 8 9 9 9 8 8 8 7
Wind_Direction
192 194 191 203 190 200 182 198 210 212 205 221 236 255 291 312 276 233 201 227 241 282 262 229 212 211 202 198 207 210 213 212 210 205 200 200 203 203 200 202 202 200 196 194 194 192 190 189 188 189 188 189 190 188 187 189 190 188 189 191 193 196 200
194 192 194 197 195 219 164 205 206 200 215 232 229 244 204 222 236 233 213 232 229 219 260 218 217 216 216 219 220 219 212 206 204 205 203 201 204 203 202 202 201 196 195 195 195 195 194 192 191 190 189 189 189 188 187 187 188 190 190 190 192 193 196
186 186 189 202 204 210 220 206 177 195 183 207 210 235 227 216 226 239 231 236 242 229 230 158 207 216 215 216 214 218 217 212 208 202 203 206 208 207 204 203 199 197 197 198 197 196 194 192 192 191 189 186 187 190 190 189 190 191 189 190 192 193 196
176 187 191 204 195 198 224 220 207 204 211 210 198 207 242 235 244 234 234 224 241 215 239 235 220 213 219 213 212 216 218 212 209 206 205 204 205 206 205 202 200 199 199 199 199 199 199 196 192 191 189 188 189 189 189 192 192 190 190 191 190 193 195
173 196 194 205 189 188 195 205 212 190 214 203 227 203 218 221 236 243 255 239 230 226 215 222 224 213 199 207 212 212 221 222 214 211 208 200 201 202 204 203 201 201 200 200 201 201 200 197 193 193 192 194 194 190 191 192 190 191 192 193 192 195 195
192 204 190 205 195 195 197 197 206 195 192 196 199 213 203 230 235 239 242 249 280 104 216 193 223 219 230 230 227 216 215 220 225 218 208 203 198 199 201 202 202 202 201 202 202 199 200 198 196 194 193 192 193 194 195 193 193 192 194 194 194 194 196
198 209 183 202 208 197 199 196 202 195 202 209 204 211 195 212 233 250 251 275 257 64 101 124 101 221 229 234 226 225 220 220 214 219 217 203 206 208 205 205 205 203 199 201 201 200 198 199 199 197 195 193 193 197 196 194 195 195 195 194 193 193 195
198 214 182 194 211 204 205 209 211 202 208 203 211 220 210 218 215 222 228 240 236 130 163 229 228 230 237 226 217 225 226 215 213 213 213 164 175 185 194 201 202 200 198 198 201 200 200 200 201 199 197 197 195 194 195 194 198 198 196 194 192 192 193
173 193 182 205 209 216 218 208 204 213 210 208 217 227 231 240 221 224 218 235 225 167 157 177 216 209 223 221 205 216 229 231 239 249 145 160 180 186 197 197 195 195 199 195 198 199 197 197 199 199 199 200 199 197 195 196 197 196 194 193 193 193 195
195 190 192 196 196 205 207 222 207 208 212 205 207 215 214 229 219 224 229 230 212 98 201 197 214 207 213 234 234 182 203 232 262 251 162 183 203 201 200 193 191 198 198 196 196 198 196 197 199 199 200 202 202 200 199 198 196 192 193 193 193 193 196
231 230 34 27 316 191 206 201 217 205 209 211 215 221 221 216 214 233 231 240 229 165 176 188 187 189 194 196 201 209 232 249 207 180 213 196 180 183 188 190 194 193 198 201 198 195 197 198 198 199 199 201 202 201 202 201 197 193 191 191 192 194 196
359 0 331 16 356 211 198 206 204 216 209 210 216 216 220 209 221 233 221 215 234 219 175 181 174 161 172 305 302 280 260 13 332 342 153 197 195 182 176 184 192 200 205 207 206 203 201 201 201 203 203 202 201 202 202 200 197 195 192 192 192 194 195
342 314 321 343 351 257 306 216 201 205 214 218 220 223 226 221 224 236 207 216 225 231 226 189 204 231 233 232 248 292 337 307 299 323 329 308 215 172 178 183 196 202 207 211 213 211 208 207 206 206 206 206 203 202 202 199 198 198 193 191 193 193 193
288 247 254 237 228 224 226 229 226 219 218 222 229 234 232 231 236 242 248 239 234 229 236 245 250 248 260 279 294 295 291 292 304 305 297 279 261 231 189 184 190 199 209 210 210 210 207 207 207 207 206 205 203 201 200 199 199 198 193 193 193 194 196
235 222 229 219 228 229 244 240 243 237 233 233 230 233 237 248 250 244 240 243 248 237 248 258 259 258 256 258 259 267 286 294 292 290 285 273 273 292 305 166 175 190 203 209 210 210 208 207 207 206 206 205 204 205 201 199 198 196 195 194 194 195 198
226 199 214 218 243 258 253 245 237 231 226 227 218 223 224 230 234 245 250 249 244 246 246 254 255 252 258 263 266 268 267 271 275 275 273 271 278 289 292 295 217 174 194 200 205 210 211 211 207 206 206 204 202 205 201 201 197 193 195 195 194 195 194
223 148 198 229 260 271 251 233 226 226 226 231 231 231 227 230 234 238 236 241 253 252 246 241 234 248 253 256 260 264 265 267 270 271 272 277 282 285 285 279 248 240 232 217 208 216 219 216 212 210 204 203 206 205 202 199 192 193 196 196 195 195 191
222 137 222 275 244 227 239 250 215 217 222 216 224 226 225 224 220 239 248 256 254 242 234 242 249 250 255 261 262 260 264 268 263 263 264 268 272 276 279 280 273 270 251 252 249 230 223 226 223 214 208 209 206 199 194 189 193 194 193 196 194 193 191
248 255 269 233 225 230 84 109 84 131 235 235 238 237 232 227 225 234 243 245 249 252 262 264 273 277 275 266 265 265 262 266 269 269 273 275 275 276 273 271 271 263 259 263 256 244 239 235 227 216 212 212 204 195 190 188 189 191 194 192 193 191 192
271 266 221 222 217 43 330 124 96 91 165 209 231 249 243 248 249 242 246 243 246 248 251 256 263 270 270 269 265 260 263 264 261 266 268 267 270 269 272 278 282 277 275 273 270 267 261 241 229 219 214 205 201 196 190 187 186 189 188 189 192 192 192
244 229 234 238 322 298 226 227 165 168 170 123 222 228 219 224 234 281 336 302 275 270 263 257 254 259 260 262 262 262 261 252 247 255 260 267 270 281 288 288 284 291 287 276 273 270 253 247 238 222 210 202 201 194 191 191 186 188 191 193 196 195 196
234 245 243 240 238 247 225 207 102 104 79 37 26 298 237 94 70 26 328 282 290 282 289 298 320 350 281 261 263 263 259 245 240 237 240 238 252 265 280 296 283 273 269 273 264 255 255 244 239 225 208 202 198 196 193 188 186 187 194 200 199 198 197
221 229 239 234 235 234 38 152 124 98 128 102 161 177 244 102 60 49 335 298 303 303 311 312 308 269 249 254 261 262 258 243 222 221 212 221 232 287 314 310 305 310 306 289 275 235 238 234 218 211 206 201 193 191 187 186 187 191 199 202 200 199 198
232 237 228 233 234 246 174 154 91 109 101 88 226 241 219 92 43 22 345 321 316 322 322 310 278 245 248 253 313 359 360 53 64 126 157 162 47 339 334 345 328 320 308 259 225 168 174 150 196 194 194 195 192 188 186 188 195 200 201 198 196 197 198
221 231 247 256 254 246 290 177 147 110 12 300 221 227 74 113 4 11 342 298 318 312 306 301 274 251 267 301 328 321 335 316 84 64 47 43 20 7 357 14 325 311 295 355 55 45 48 219 212 202 191 194 193 191 186 193 202 204 199 195 194 194 195
221 218 231 241 253 270 283 241 247 212 284 215 227 72 188 146 327 80 266 299 301 312 294 296 286 292 294 294 297 299 300 342 40 29 42 58 76 55 33 360 316 343 18 47 64 70 64 101 165 176 180 181 182 178 183 189 194 196 193 191 191 193 194
227 228 235 227 233 160 257 286 216 250 249 308 42 316 123 341 346 345 355 279 313 309 295 289 291 289 289 289 292 310 320 308 1 23 23 27 28 23 9 29 21 355 40 35 42 47 56 53 96 153 159 154 151 158 160 150 170 172 176 184 184 189 192
216 216 220 217 176 8 360 353 268 38 301 333 331 325 292 7 340 345 328 349 339 314 290 294 297 297 294 283 276 281 279 285 287 33 352 328 340 115 11 20 33 44 56 51 52 50 51 51 57 90 128 130 121 120 119 90 73 115 159 177 180 190 194
301 254 253 347 331 307 322 323 312 312 312 325 339 322 317 318 328 352 294 331 327 309 302 292 291 292 286 288 286 272 261 249 214 203 207 248 220 135 92 61 35 51 63 65 73 75 73 60 59 71 82 91 87 83 72 70 87 111 140 174 182 193 194
286 280 274 281 277 285 298 333 325 325 319 308 310 319 305 313 316 307 314 315 310 307 295 295 294 286 289 286 273 259 251 243 191 165 189 196 194 144 117 110 88 83 79 77 79 80 81 81 78 69 74 83 90 96 100 103 110 138 154 154 172 185 193
281 265 267 264 277 294 311 307 314 311 311 310 311 304 303 301 292 292 319 303 300 284 285 302 310 299 278 258 256 280 297 252 204 187 171 158 152 116 102 100 137 109 92 84 79 77 76 75 77 84 84 83 88 96 97 108 108 108 137 144 146 152 170
250 262 283 295 296 295 295 293 295 303 304 304 304 304 302 298 288 290 298 277 268 266 232 297 323 316 292 270 233 227 229 230 210 187 173 159 148 100 103 109 91 93 93 91 85 80 77 73 75 79 82 83 81 81 78 77 100 113 115 118 129 126 146
266 268 269 273 281 279 275 278 276 276 285 294 298 291 279 268 265 262 271 288 291 150 115 151 59 3 327 280 260 227 205 197 181 185 153 124 112 97 89 84 84 92 91 85 83 85 81 79 79 80 79 79 84 86 91 102 115 121 117 106 105 99 81
256 255 262 278 267 258 246 239 297 341 344 341 321 296 271 263 250 250 234 197 110 114 129 140 106 73 6 338 299 170 150 154 165 162 133 123 117 111 109 106 103 102 99 105 97 91 87 82 84 83 80 79 79 80 85 91 104 114 114 113 113 113 111
255 252 247 244 260 278 283 291 301 315 322 327 313 310 313 297 255 227 220 175 131 113 106 111 115 93 66 16 67 101 77 60 53 79 115 114 111 107 111 113 108 106 104 102 102 97 95 94 88 82 79 76 72 69 72 80 94 100 109 110 103 94 88
271 275 280 278 275 274 280 284 294 293 297 306 301 299 297 291 264 235 178 138 116 106 115 118 113 108 97 81 77 79 76 81 83 69 77 97 104 101 98 99 101 104 104 103 100 98 97 92 90 88 85 82 82 83 84 86 91 95 99 100 94 91 91
264 270 273 268 261 264 271 284 287 283 280 283 281 282 281 282 258 216 166 132 102 97 105 108 93 84 86 80 77 78 80 80 86 96 90 76 71 82 96 101 102 102 98 97 96 95 92 87 83 84 85 85 85 84 84 85 87 89 92 95 99 101 104